Time,TemperatureF,DewpointF,PressureIn,WindDirection,WindDirectionDegrees,WindSpeedMPH,WindSpeedGustMPH,Humidity,HourlyPrecipIn,Conditions,Clouds,dailyrainin,SolarRadiationWatts/m^2,SoftwareType,DateUTC
2013-01-28 00:00:00,33.2,31.7,30.04,SE,127,5.0,5.0,94,0.00,,,0.00,0.00,VWS V14.01,2013-01-28 05:00:00,
2013-01-28 00:02:00,33.2,31.7,30.04,ESE,117,5.0,5.0,94,0.00,,,0.00,0.00,VWS V14.01,2013-01-28 05:02:00,
2013-01-28 00:03:00,33.2,31.7,30.04,SE,125,4.0,7.0,94,0.00,,,0.00,0.00,VWS V14.01,2013-01-28 05:03:00,
2013-01-28 00:08:00,33.3,31.8,30.05,ESE,123,3.0,5.0,94,0.00,,,0.00,0.00,VWS V14.01,2013-01-28 05:08:00,
2013-01-28 00:13:00,33.4,31.9,30.05,SE,124,7.0,8.0,94,0.00,,,0.00,0.00,VWS V14.01,2013-01-28 05:13:00,
2013-01-28 00:18:00,33.5,32.2,30.04,SE,124,5.0,5.0,95,0.00,,,0.00,0.00,VWS V14.01,2013-01-28 05:18:00,
2013-01-28 00:23:00,33.6,32.3,30.04,SE,134,4.0,7.0,95,0.00,,,0.00,0.00,VWS V14.01,2013-01-28 05:23:00,
2013-01-28 00:28:00,33.7,32.4,30.04,SE,143,5.0,11.0,95,0.00,,,0.00,0.00,VWS V14.01,2013-01-28 05:28:00,
2013-01-28 00:33:00,33.7,32.4,30.04,ESE,122,7.0,7.0,95,0.00,,,0.00,0.00,VWS V14.01,2013-01-28 05:33:00,
2013-01-28 00:38:00,33.9,32.6,30.04,SE,130,3.0,6.0,95,0.00,,,0.00,0.00,VWS V14.01,2013-01-28 05:38:00,
2013-01-28 00:43:00,33.9,32.6,30.04,SE,134,5.0,8.0,95,0.00,,,0.00,0.00,VWS V14.01,2013-01-28 05:43:00,
2013-01-28 00:48:00,33.9,32.6,30.03,SE,129,7.0,7.0,95,0.00,,,0.00,0.00,VWS V14.01,2013-01-28 05:48:00,
2013-01-28 00:53:00,34.0,32.7,30.03,SE,143,5.0,9.0,95,0.00,,,0.00,0.00,VWS V14.01,2013-01-28 05:53:00,
2013-01-28 00:58:00,34.1,32.8,30.02,SE,126,5.0,8.0,95,0.00,,,0.00,0.00,VWS V14.01,2013-01-28 05:58:00,
2013-01-28 01:03:00,34.1,32.8,30.02,SE,124,6.0,7.0,95,0.00,,,0.00,0.00,VWS V14.01,2013-01-28 06:03:00,
2013-01-28 01:08:00,34.1,32.8,30.02,SE,129,4.0,8.0,95,0.00,,,0.00,0.00,VWS V14.01,2013-01-28 06:08:00,
2013-01-28 01:13:00,34.1,32.8,30.02,SE,124,4.0,7.0,95,0.00,,,0.00,0.00,VWS V14.01,2013-01-28 06:13:00,
2013-01-28 01:18:00,34.1,32.8,30.02,SE,133,2.0,5.0,95,0.00,,,0.00,0.00,VWS V14.01,2013-01-28 06:18:00,
2013-01-28 01:23:00,34.1,32.8,30.02,SE,136,4.0,8.0,95,0.00,,,0.00,0.00,VWS V14.01,2013-01-28 06:23:00,
2013-01-28 01:28:00,34.2,32.9,30.01,SE,127,4.0,6.0,95,0.00,,,0.00,0.00,VWS V14.01,2013-01-28 06:28:00,
2013-01-28 01:33:00,34.3,33.0,30.00,ESE,123,7.0,7.0,95,0.00,,,0.00,0.00,VWS V14.01,2013-01-28 06:33:00,
2013-01-28 01:38:00,34.3,33.0,30.00,SE,128,6.0,6.0,95,0.00,,,0.00,0.00,VWS V14.01,2013-01-28 06:38:00,
2013-01-28 01:43:00,34.3,33.0,30.00,SE,124,3.0,5.0,95,0.00,,,0.00,0.00,VWS V14.01,2013-01-28 06:43:00,
2013-01-28 01:48:00,34.3,33.0,30.00,SE,125,4.0,4.0,95,0.00,,,0.00,0.00,VWS V14.01,2013-01-28 06:48:00,
2013-01-28 01:53:00,34.3,33.0,30.00,SE,125,4.0,4.0,95,0.00,,,0.00,0.00,VWS V14.01,2013-01-28 06:53:00,
2013-01-28 01:58:00,34.3,33.0,30.00,SE,125,4.0,4.0,95,0.00,,,0.00,0.00,VWS V14.01,2013-01-28 06:58:00,
2013-01-28 02:03:00,34.3,33.0,29.99,SE,125,4.0,4.0,95,0.00,,,0.00,0.00,VWS V14.01,2013-01-28 07:03:00,
2013-01-28 02:08:00,34.3,33.0,29.99,SE,125,4.0,4.0,95,0.00,,,0.00,0.00,VWS V14.01,2013-01-28 07:08:00,
2013-01-28 02:13:00,34.6,33.6,29.99,SE,131,3.0,6.0,96,0.00,,,0.00,0.00,VWS V14.01,2013-01-28 07:13:00,
2013-01-28 02:18:00,34.6,33.6,29.98,SE,125,5.0,7.0,96,0.00,,,0.00,0.00,VWS V14.01,2013-01-28 07:18:00,
2013-01-28 02:23:00,34.7,33.7,29.98,ESE,119,5.0,7.0,96,0.00,,,0.00,0.00,VWS V14.01,2013-01-28 07:23:00,
2013-01-28 02:28:00,34.7,33.7,29.98,SE,132,2.0,5.0,96,0.00,,,0.00,0.00,VWS V14.01,2013-01-28 07:28:00,
2013-01-28 02:33:00,34.6,33.6,29.98,SE,130,2.0,3.0,96,0.00,,,0.00,0.00,VWS V14.01,2013-01-28 07:33:00,
2013-01-28 02:38:00,34.8,33.8,29.98,SSE,152,4.0,4.0,96,0.00,,,0.00,0.00,VWS V14.01,2013-01-28 07:38:00,
2013-01-28 02:43:00,35.0,34.0,29.97,SSE,149,2.0,4.0,96,0.00,,,0.00,0.00,VWS V14.01,2013-01-28 07:43:00,
2013-01-28 02:48:00,35.3,34.3,29.97,ESE,116,2.0,2.0,96,0.00,,,0.00,0.00,VWS V14.01,2013-01-28 07:48:00,
2013-01-28 02:53:00,35.4,34.4,29.97,SE,134,3.0,4.0,96,0.00,,,0.00,0.00,VWS V14.01,2013-01-28 07:53:00,
2013-01-28 02:58:00,35.4,34.4,29.97,SE,145,2.0,3.0,96,0.00,,,0.00,0.00,VWS V14.01,2013-01-28 07:58:00,
2013-01-28 03:03:00,35.8,34.8,29.96,SE,145,1.0,5.0,96,0.00,,,0.00,0.00,VWS V14.01,2013-01-28 08:03:00,
2013-01-28 03:08:00,36.1,35.1,29.96,SE,143,2.0,3.0,96,0.00,,,0.00,0.00,VWS V14.01,2013-01-28 08:08:00,
2013-01-28 03:13:00,36.2,35.2,29.96,SE,145,1.0,3.0,96,0.00,,,0.00,0.00,VWS V14.01,2013-01-28 08:13:00,
2013-01-28 03:18:00,36.3,35.5,29.96,SE,144,2.0,3.0,97,0.00,,,0.00,0.00,VWS V14.01,2013-01-28 08:18:00,
2013-01-28 03:23:00,36.4,35.4,29.96,SE,146,1.0,4.0,96,0.00,,,0.00,0.00,VWS V14.01,2013-01-28 08:23:00,
2013-01-28 03:28:00,36.4,35.4,29.96,SE,141,1.0,3.0,96,0.01,,,0.01,0.00,VWS V14.01,2013-01-28 08:28:00,
2013-01-28 03:33:00,36.4,35.4,29.95,ESE,123,2.0,2.0,96,0.01,,,0.01,0.00,VWS V14.01,2013-01-28 08:33:00,
2013-01-28 03:38:00,36.3,35.3,29.95,ESE,123,2.0,2.0,96,0.01,,,0.01,0.00,VWS V14.01,2013-01-28 08:38:00,
2013-01-28 03:43:00,36.3,35.3,29.95,SE,131,0.0,1.0,96,0.01,,,0.01,0.00,VWS V14.01,2013-01-28 08:43:00,
2013-01-28 03:48:00,36.3,35.3,29.94,SE,131,1.0,2.0,96,0.01,,,0.01,0.00,VWS V14.01,2013-01-28 08:48:00,
2013-01-28 03:53:00,36.3,35.5,29.94,SE,131,2.0,2.0,97,0.01,,,0.01,0.00,VWS V14.01,2013-01-28 08:53:00,
2013-01-28 03:58:00,36.4,35.4,29.94,SE,131,1.0,2.0,96,0.01,,,0.01,0.00,VWS V14.01,2013-01-28 08:58:00,
2013-01-28 04:03:00,36.5,35.7,29.94,SE,131,1.0,2.0,97,0.02,,,0.02,0.00,VWS V14.01,2013-01-28 09:03:00,
2013-01-28 04:08:00,36.6,35.8,29.94,SE,131,2.0,2.0,97,0.02,,,0.02,0.00,VWS V14.01,2013-01-28 09:08:00,
2013-01-28 04:13:00,36.7,35.9,29.94,SE,131,1.0,2.0,97,0.02,,,0.02,0.00,VWS V14.01,2013-01-28 09:13:00,
2013-01-28 04:18:00,36.7,35.9,29.93,SE,131,1.0,2.0,97,0.02,,,0.02,0.00,VWS V14.01,2013-01-28 09:18:00,
2013-01-28 04:23:00,36.8,36.0,29.93,SE,131,1.0,1.0,97,0.02,,,0.02,0.00,VWS V14.01,2013-01-28 09:23:00,
2013-01-28 04:28:00,36.8,36.0,29.93,SE,131,1.0,1.0,97,0.02,,,0.03,0.00,VWS V14.01,2013-01-28 09:28:00,
2013-01-28 04:33:00,36.9,36.1,29.93,SE,133,2.0,3.0,97,0.02,,,0.03,0.00,VWS V14.01,2013-01-28 09:33:00,
2013-01-28 04:38:00,37.2,36.4,29.93,SE,133,1.0,1.0,97,0.02,,,0.03,0.00,VWS V14.01,2013-01-28 09:38:00,
2013-01-28 04:43:00,37.5,36.7,29.92,SE,133,0.0,1.0,97,0.02,,,0.03,0.00,VWS V14.01,2013-01-28 09:43:00,
2013-01-28 04:48:00,37.8,37.0,29.92,SE,140,1.0,2.0,97,0.02,,,0.03,0.00,VWS V14.01,2013-01-28 09:48:00,
2013-01-28 04:53:00,38.3,37.5,29.92,SSW,205,1.0,1.0,97,0.03,,,0.04,0.00,VWS V14.01,2013-01-28 09:53:00,
2013-01-28 04:58:00,39.0,38.2,29.91,SSE,150,2.0,4.0,97,0.03,,,0.04,0.00,VWS V14.01,2013-01-28 09:58:00,
2013-01-28 05:03:00,39.7,38.9,29.91,SSE,150,3.0,3.0,97,0.02,,,0.04,0.00,VWS V14.01,2013-01-28 10:03:00,
2013-01-28 05:08:00,40.1,39.3,29.91,South,177,4.0,6.0,97,0.02,,,0.04,0.00,VWS V14.01,2013-01-28 10:08:00,
2013-01-28 05:13:00,40.4,39.6,29.91,SSW,201,3.0,3.0,97,0.02,,,0.04,0.00,VWS V14.01,2013-01-28 10:13:00,
2013-01-28 05:18:00,40.5,39.7,29.91,SE,136,2.0,3.0,97,0.02,,,0.04,0.00,VWS V14.01,2013-01-28 10:18:00,
2013-01-28 05:23:00,40.5,39.7,29.91,SSE,148,2.0,3.0,97,0.03,,,0.05,0.00,VWS V14.01,2013-01-28 10:23:00,
2013-01-28 05:28:00,40.6,39.8,29.91,SE,131,3.0,7.0,97,0.02,,,0.05,0.00,VWS V14.01,2013-01-28 10:28:00,
2013-01-28 05:33:00,40.7,39.9,29.90,SSE,153,4.0,4.0,97,0.02,,,0.05,0.00,VWS V14.01,2013-01-28 10:33:00,
2013-01-28 05:38:00,40.6,39.8,29.90,SSE,148,2.0,3.0,97,0.02,,,0.05,0.00,VWS V14.01,2013-01-28 10:38:00,
2013-01-28 05:43:00,40.6,39.8,29.90,SSE,152,3.0,3.0,97,0.02,,,0.05,0.00,VWS V14.01,2013-01-28 10:43:00,
2013-01-28 05:48:00,40.5,39.7,29.90,SSE,151,2.0,4.0,97,0.02,,,0.05,0.00,VWS V14.01,2013-01-28 10:48:00,
2013-01-28 05:53:00,40.4,39.6,29.90,SSE,151,2.0,3.0,97,0.01,,,0.05,0.00,VWS V14.01,2013-01-28 10:53:00,
2013-01-28 05:58:00,40.3,39.5,29.90,SSE,151,3.0,4.0,97,0.02,,,0.06,0.00,VWS V14.01,2013-01-28 10:58:00,
2013-01-28 06:03:00,40.2,39.4,29.90,SSE,151,3.0,4.0,97,0.02,,,0.06,0.00,VWS V14.01,2013-01-28 11:03:00,
2013-01-28 06:08:00,40.2,39.4,29.90,SSE,151,2.0,2.0,97,0.02,,,0.06,0.00,VWS V14.01,2013-01-28 11:08:00,
2013-01-28 06:13:00,40.1,39.3,29.89,SSE,150,4.0,4.0,97,0.02,,,0.06,0.00,VWS V14.01,2013-01-28 11:13:00,
2013-01-28 06:18:00,40.1,39.3,29.89,SSE,150,4.0,4.0,97,0.02,,,0.06,0.00,VWS V14.01,2013-01-28 11:18:00,
2013-01-28 06:23:00,40.1,39.3,29.89,SSE,150,3.0,4.0,97,0.01,,,0.06,0.00,VWS V14.01,2013-01-28 11:23:00,
2013-01-28 06:28:00,40.2,39.4,29.89,SSE,150,2.0,3.0,97,0.01,,,0.06,0.00,VWS V14.01,2013-01-28 11:28:00,
2013-01-28 06:33:00,40.3,39.5,29.89,SSE,150,1.0,3.0,97,0.01,,,0.06,0.00,VWS V14.01,2013-01-28 11:33:00,
2013-01-28 06:38:00,40.3,39.5,29.88,SSE,150,4.0,4.0,97,0.01,,,0.06,0.00,VWS V14.01,2013-01-28 11:38:00,
2013-01-28 06:43:00,40.3,39.5,29.88,SSE,150,2.0,2.0,97,0.01,,,0.06,0.00,VWS V14.01,2013-01-28 11:43:00,
2013-01-28 06:48:00,40.4,39.6,29.88,SSE,150,2.0,3.0,97,0.02,,,0.07,0.00,VWS V14.01,2013-01-28 11:48:00,
2013-01-28 06:53:00,40.4,39.6,29.89,SSE,150,3.0,3.0,97,0.02,,,0.07,0.00,VWS V14.01,2013-01-28 11:53:00,
2013-01-28 06:58:00,40.5,39.7,29.88,SSE,150,3.0,3.0,97,0.01,,,0.07,0.00,VWS V14.01,2013-01-28 11:58:00,
2013-01-28 07:03:00,40.6,39.8,29.88,SSE,150,3.0,3.0,97,0.01,,,0.07,0.00,VWS V14.01,2013-01-28 12:03:00,
2013-01-28 07:08:00,40.6,39.8,29.88,SSE,150,3.0,3.0,97,0.01,,,0.07,0.00,VWS V14.01,2013-01-28 12:08:00,
2013-01-28 07:13:00,40.6,39.8,29.88,SSE,150,2.0,2.0,97,0.01,,,0.07,0.00,VWS V14.01,2013-01-28 12:13:00,
2013-01-28 07:18:00,40.6,39.8,29.88,SSE,150,1.0,2.0,97,0.02,,,0.08,0.00,VWS V14.01,2013-01-28 12:18:00,
2013-01-28 07:23:00,40.7,39.9,29.88,SSE,150,2.0,2.0,97,0.02,,,0.08,0.00,VWS V14.01,2013-01-28 12:23:00,
2013-01-28 07:28:00,40.8,40.0,29.88,SSE,150,1.0,2.0,97,0.03,,,0.09,0.00,VWS V14.01,2013-01-28 12:28:00,
2013-01-28 07:33:00,40.9,40.4,29.88,SSE,150,1.0,3.0,98,0.03,,,0.09,0.00,VWS V14.01,2013-01-28 12:33:00,
2013-01-28 07:38:00,41.0,40.5,29.88,SSE,150,1.0,2.0,98,0.04,,,0.10,0.00,VWS V14.01,2013-01-28 12:38:00,
2013-01-28 07:43:00,40.9,40.4,29.88,SSE,150,1.0,2.0,98,0.04,,,0.10,0.00,VWS V14.01,2013-01-28 12:43:00,
2013-01-28 07:48:00,41.0,40.5,29.88,SSE,150,1.0,2.0,98,0.04,,,0.11,0.00,VWS V14.01,2013-01-28 12:48:00,
2013-01-28 07:53:00,41.1,40.6,29.88,SSE,150,0.0,1.0,98,0.04,,,0.11,0.00,VWS V14.01,2013-01-28 12:53:00,
2013-01-28 07:58:00,41.1,40.6,29.88,SSE,150,1.0,1.0,98,0.04,,,0.11,0.00,VWS V14.01,2013-01-28 12:58:00,
2013-01-28 08:03:00,41.2,40.4,29.89,SSE,155,2.0,3.0,97,0.05,,,0.12,0.00,VWS V14.01,2013-01-28 13:03:00,
2013-01-28 08:08:00,41.4,40.6,29.88,ESE,109,1.0,1.0,97,0.05,,,0.12,0.00,VWS V14.01,2013-01-28 13:08:00,
2013-01-28 08:13:00,41.5,41.0,29.88,ESE,109,0.0,2.0,98,0.06,,,0.13,0.00,VWS V14.01,2013-01-28 13:13:00,
2013-01-28 08:18:00,41.6,41.1,29.89,ESE,109,0.0,1.0,98,0.05,,,0.13,0.00,VWS V14.01,2013-01-28 13:18:00,
2013-01-28 08:23:00,41.8,41.3,29.89,SW,227,1.0,2.0,98,0.05,,,0.13,0.00,VWS V14.01,2013-01-28 13:23:00,
2013-01-28 08:28:00,42.0,41.5,29.89,SW,214,3.0,3.0,98,0.04,,,0.13,0.00,VWS V14.01,2013-01-28 13:28:00,
2013-01-28 08:33:00,42.4,41.9,29.89,South,175,2.0,2.0,98,0.04,,,0.13,0.00,VWS V14.01,2013-01-28 13:33:00,
2013-01-28 08:38:00,42.7,42.2,29.89,South,169,0.0,0.0,98,0.03,,,0.13,0.00,VWS V14.01,2013-01-28 13:38:00,
2013-01-28 08:43:00,43.0,42.5,29.89,South,180,0.0,1.0,98,0.03,,,0.13,5.00,VWS V14.01,2013-01-28 13:43:00,
2013-01-28 08:48:00,43.3,42.8,29.89,SW,215,2.0,6.0,98,0.02,,,0.13,5.00,VWS V14.01,2013-01-28 13:48:00,
2013-01-28 08:53:00,43.5,43.0,29.89,South,175,2.0,3.0,98,0.02,,,0.13,5.00,VWS V14.01,2013-01-28 13:53:00,
2013-01-28 08:58:00,43.9,43.4,29.90,SW,221,5.0,9.0,98,0.02,,,0.13,5.00,VWS V14.01,2013-01-28 13:58:00,
2013-01-28 09:03:00,44.2,43.7,29.89,South,175,1.0,1.0,98,0.02,,,0.14,9.00,VWS V14.01,2013-01-28 14:03:00,
2013-01-28 09:08:00,44.3,43.8,29.89,SE,131,1.0,3.0,98,0.02,,,0.14,11.00,VWS V14.01,2013-01-28 14:08:00,
2013-01-28 09:13:00,44.5,44.0,29.89,SE,139,1.0,2.0,98,0.01,,,0.14,14.00,VWS V14.01,2013-01-28 14:13:00,
2013-01-28 09:18:00,44.8,44.3,29.89,SE,141,2.0,2.0,98,0.01,,,0.14,11.00,VWS V14.01,2013-01-28 14:18:00,
2013-01-28 09:22:00,44.9,44.4,29.89,SSW,203,5.0,5.0,98,0.01,,,0.14,12.00,VWS V14.01,2013-01-28 14:22:00,
2013-01-28 09:27:00,45.1,44.6,29.89,South,173,2.0,5.0,98,0.01,,,0.14,18.00,VWS V14.01,2013-01-28 14:27:00,
2013-01-28 09:32:00,45.4,44.9,29.89,SSE,163,2.0,4.0,98,0.01,,,0.14,16.00,VWS V14.01,2013-01-28 14:32:00,
2013-01-28 09:37:00,45.5,45.0,29.90,SSW,193,2.0,7.0,98,0.01,,,0.14,14.00,VWS V14.01,2013-01-28 14:37:00,
2013-01-28 09:42:00,45.5,45.0,29.90,SE,132,0.0,2.0,98,0.02,,,0.15,19.00,VWS V14.01,2013-01-28 14:42:00,
2013-01-28 09:47:00,45.4,44.9,29.90,South,190,5.0,5.0,98,0.02,,,0.15,16.00,VWS V14.01,2013-01-28 14:47:00,
2013-01-28 09:52:00,45.3,44.8,29.90,SSW,192,1.0,2.0,98,0.02,,,0.15,21.00,VWS V14.01,2013-01-28 14:52:00,
2013-01-28 09:57:00,45.4,44.9,29.90,SSW,202,1.0,1.0,98,0.02,,,0.15,16.00,VWS V14.01,2013-01-28 14:57:00,
2013-01-28 10:02:00,45.4,44.9,29.90,SE,126,1.0,2.0,98,0.01,,,0.15,23.00,VWS V14.01,2013-01-28 15:02:00,
2013-01-28 10:07:00,45.4,44.9,29.90,SSW,211,7.0,9.0,98,0.01,,,0.15,21.00,VWS V14.01,2013-01-28 15:07:00,
2013-01-28 10:12:00,45.5,45.0,29.90,South,190,0.0,1.0,98,0.01,,,0.15,21.00,VWS V14.01,2013-01-28 15:12:00,
2013-01-28 10:17:00,45.6,45.1,29.90,South,188,2.0,2.0,98,0.02,,,0.16,23.00,VWS V14.01,2013-01-28 15:17:00,
2013-01-28 10:22:00,45.6,45.1,29.90,WSW,246,2.0,4.0,98,0.02,,,0.16,28.00,VWS V14.01,2013-01-28 15:22:00,
2013-01-28 10:27:00,45.7,45.2,29.90,South,175,2.0,2.0,98,0.02,,,0.16,33.00,VWS V14.01,2013-01-28 15:27:00,
2013-01-28 10:32:00,45.9,45.4,29.90,SW,232,4.0,4.0,98,0.02,,,0.16,33.00,VWS V14.01,2013-01-28 15:32:00,
2013-01-28 10:37:00,46.1,45.6,29.90,SSW,205,4.0,7.0,98,0.02,,,0.16,37.00,VWS V14.01,2013-01-28 15:37:00,
2013-01-28 10:42:00,46.1,45.6,29.90,South,185,7.0,7.0,98,0.01,,,0.16,39.00,VWS V14.01,2013-01-28 15:42:00,
2013-01-28 10:47:00,46.4,45.9,29.91,West,263,1.0,6.0,98,0.01,,,0.16,32.00,VWS V14.01,2013-01-28 15:47:00,
2013-01-28 10:52:00,46.3,45.8,29.90,South,190,1.0,4.0,98,0.01,,,0.16,40.00,VWS V14.01,2013-01-28 15:52:00,
2013-01-28 10:57:00,46.4,45.9,29.91,South,175,4.0,4.0,98,0.01,,,0.16,39.00,VWS V14.01,2013-01-28 15:57:00,
2013-01-28 11:02:00,46.3,45.8,29.91,SSE,162,4.0,4.0,98,0.01,,,0.16,42.00,VWS V14.01,2013-01-28 16:02:00,
2013-01-28 11:07:00,46.4,45.9,29.91,South,173,6.0,6.0,98,0.01,,,0.16,53.00,VWS V14.01,2013-01-28 16:07:00,
2013-01-28 11:12:00,46.5,46.0,29.91,SSW,192,5.0,5.0,98,0.01,,,0.16,51.00,VWS V14.01,2013-01-28 16:12:00,
2013-01-28 11:17:00,46.5,46.0,29.91,SSW,201,5.0,7.0,98,0.00,,,0.16,47.00,VWS V14.01,2013-01-28 16:17:00,
2013-01-28 11:22:00,46.7,46.2,29.91,South,190,8.0,8.0,98,0.00,,,0.16,51.00,VWS V14.01,2013-01-28 16:22:00,
2013-01-28 11:27:00,46.7,46.2,29.92,SW,231,2.0,3.0,98,0.00,,,0.16,42.00,VWS V14.01,2013-01-28 16:27:00,
2013-01-28 11:32:00,46.8,46.3,29.92,SSW,194,6.0,7.0,98,0.00,,,0.16,40.00,VWS V14.01,2013-01-28 16:32:00,
2013-01-28 11:37:00,46.8,46.3,29.92,SSW,205,7.0,8.0,98,0.00,,,0.16,46.00,VWS V14.01,2013-01-28 16:37:00,
2013-01-28 11:42:00,47.0,46.5,29.92,SSW,196,7.0,7.0,98,0.00,,,0.16,51.00,VWS V14.01,2013-01-28 16:42:00,
2013-01-28 11:47:00,47.0,46.5,29.92,SSW,213,8.0,9.0,98,0.00,,,0.16,70.00,VWS V14.01,2013-01-28 16:47:00,
2013-01-28 11:52:00,47.0,46.5,29.92,ESE,118,8.0,10.0,98,0.00,,,0.16,74.00,VWS V14.01,2013-01-28 16:52:00,
2013-01-28 11:57:00,47.1,46.6,29.92,South,185,3.0,5.0,98,0.00,,,0.16,70.00,VWS V14.01,2013-01-28 16:57:00,
2013-01-28 12:02:00,47.2,46.7,29.92,WSW,246,5.0,5.0,98,0.00,,,0.16,60.00,VWS V14.01,2013-01-28 17:02:00,
2013-01-28 12:07:00,47.1,46.6,29.91,SSE,167,3.0,6.0,98,0.00,,,0.16,63.00,VWS V14.01,2013-01-28 17:07:00,
2013-01-28 12:12:00,47.2,46.7,29.91,WSW,253,5.0,6.0,98,0.00,,,0.16,54.00,VWS V14.01,2013-01-28 17:12:00,
2013-01-28 12:17:00,47.2,46.7,29.91,SSW,195,7.0,7.0,98,0.00,,,0.16,54.00,VWS V14.01,2013-01-28 17:17:00,
2013-01-28 12:22:00,47.2,46.7,29.91,SSW,194,5.0,7.0,98,0.00,,,0.16,69.00,VWS V14.01,2013-01-28 17:22:00,
2013-01-28 12:27:00,47.2,46.7,29.91,South,183,2.0,3.0,98,0.00,,,0.16,63.00,VWS V14.01,2013-01-28 17:27:00,
2013-01-28 12:32:00,47.2,46.7,29.91,SSW,209,4.0,5.0,98,0.00,,,0.16,47.00,VWS V14.01,2013-01-28 17:32:00,
2013-01-28 12:37:00,47.2,46.7,29.91,South,186,8.0,8.0,98,0.00,,,0.16,51.00,VWS V14.01,2013-01-28 17:37:00,
2013-01-28 12:42:00,47.3,46.8,29.91,SW,229,5.0,6.0,98,0.00,,,0.16,49.00,VWS V14.01,2013-01-28 17:42:00,
2013-01-28 12:47:00,47.2,46.7,29.91,SW,218,10.0,10.0,98,0.00,,,0.16,47.00,VWS V14.01,2013-01-28 17:47:00,
2013-01-28 12:52:00,47.2,46.7,29.91,SW,219,4.0,8.0,98,0.00,,,0.16,51.00,VWS V14.01,2013-01-28 17:52:00,
2013-01-28 12:57:00,47.1,46.6,29.91,South,179,5.0,5.0,98,0.00,,,0.16,51.00,VWS V14.01,2013-01-28 17:57:00,
2013-01-28 13:02:00,47.1,46.6,29.91,SSW,197,3.0,3.0,98,0.00,,,0.16,56.00,VWS V14.01,2013-01-28 18:02:00,
2013-01-28 13:07:00,47.1,46.6,29.91,SSW,213,5.0,9.0,98,0.00,,,0.16,49.00,VWS V14.01,2013-01-28 18:07:00,
2013-01-28 13:12:00,47.1,46.6,29.91,SSW,200,4.0,5.0,98,0.00,,,0.16,47.00,VWS V14.01,2013-01-28 18:12:00,
2013-01-28 13:17:00,47.1,46.6,29.91,SSW,200,4.0,4.0,98,0.00,,,0.16,44.00,VWS V14.01,2013-01-28 18:17:00,
2013-01-28 13:22:00,47.0,46.5,29.91,SW,234,2.0,2.0,98,0.01,,,0.17,42.00,VWS V14.01,2013-01-28 18:22:00,
2013-01-28 13:27:00,47.0,46.5,29.91,SW,218,3.0,4.0,98,0.01,,,0.17,46.00,VWS V14.01,2013-01-28 18:27:00,
2013-01-28 13:32:00,47.0,46.5,29.91,SSW,209,5.0,5.0,98,0.01,,,0.17,37.00,VWS V14.01,2013-01-28 18:32:00,
2013-01-28 13:37:00,46.9,46.4,29.91,WSW,256,6.0,6.0,98,0.01,,,0.17,42.00,VWS V14.01,2013-01-28 18:37:00,
2013-01-28 13:42:00,46.9,46.4,29.91,SW,222,4.0,4.0,98,0.01,,,0.17,40.00,VWS V14.01,2013-01-28 18:42:00,
2013-01-28 13:47:00,47.0,46.5,29.91,SW,217,1.0,2.0,98,0.01,,,0.17,49.00,VWS V14.01,2013-01-28 18:47:00,
2013-01-28 13:52:00,47.0,46.5,29.91,West,261,3.0,3.0,98,0.01,,,0.17,65.00,VWS V14.01,2013-01-28 18:52:00,
2013-01-28 13:57:00,47.0,46.5,29.91,SW,217,2.0,2.0,98,0.01,,,0.17,46.00,VWS V14.01,2013-01-28 18:57:00,
2013-01-28 14:02:00,47.0,46.5,29.90,SSW,198,4.0,6.0,98,0.01,,,0.17,40.00,VWS V14.01,2013-01-28 19:02:00,
2013-01-28 14:07:00,47.0,46.5,29.91,SW,236,4.0,4.0,98,0.01,,,0.17,42.00,VWS V14.01,2013-01-28 19:07:00,
2013-01-28 14:12:00,46.9,46.4,29.91,West,262,3.0,4.0,98,0.01,,,0.17,40.00,VWS V14.01,2013-01-28 19:12:00,
2013-01-28 14:17:00,46.7,46.2,29.91,WSW,256,5.0,5.0,98,0.01,,,0.17,46.00,VWS V14.01,2013-01-28 19:17:00,
2013-01-28 14:22:00,46.5,46.0,29.91,West,269,3.0,4.0,98,0.00,,,0.17,44.00,VWS V14.01,2013-01-28 19:22:00,
2013-01-28 14:27:00,46.0,45.5,29.91,West,269,5.0,5.0,98,0.00,,,0.17,54.00,VWS V14.01,2013-01-28 19:27:00,
2013-01-28 14:32:00,45.6,45.1,29.91,West,262,3.0,4.0,98,0.00,,,0.17,44.00,VWS V14.01,2013-01-28 19:32:00,
2013-01-28 14:37:00,45.5,45.0,29.91,SW,236,3.0,4.0,98,0.00,,,0.17,44.00,VWS V14.01,2013-01-28 19:37:00,
2013-01-28 14:42:00,45.3,44.8,29.91,West,264,4.0,5.0,98,0.00,,,0.17,42.00,VWS V14.01,2013-01-28 19:42:00,
2013-01-28 14:47:00,45.1,44.6,29.92,West,262,3.0,4.0,98,0.00,,,0.17,40.00,VWS V14.01,2013-01-28 19:47:00,
2013-01-28 14:52:00,44.8,44.3,29.92,WSW,248,1.0,2.0,98,0.00,,,0.17,46.00,VWS V14.01,2013-01-28 19:52:00,
2013-01-28 14:57:00,44.6,44.1,29.92,WSW,252,1.0,2.0,98,0.00,,,0.17,40.00,VWS V14.01,2013-01-28 19:57:00,
2013-01-28 15:02:00,44.4,43.9,29.92,West,278,4.0,4.0,98,0.00,,,0.17,47.00,VWS V14.01,2013-01-28 20:02:00,
2013-01-28 15:07:00,44.1,43.6,29.92,West,277,5.0,5.0,98,0.00,,,0.17,39.00,VWS V14.01,2013-01-28 20:07:00,
2013-01-28 15:12:00,43.9,43.4,29.92,WSW,254,2.0,2.0,98,0.00,,,0.17,35.00,VWS V14.01,2013-01-28 20:12:00,
2013-01-28 15:17:00,43.7,43.2,29.92,West,279,2.0,2.0,98,0.00,,,0.17,32.00,VWS V14.01,2013-01-28 20:17:00,
2013-01-28 15:22:00,43.5,43.0,29.92,WNW,294,4.0,5.0,98,0.00,,,0.17,47.00,VWS V14.01,2013-01-28 20:22:00,
2013-01-28 15:27:00,43.2,42.7,29.92,West,278,4.0,6.0,98,0.00,,,0.17,40.00,VWS V14.01,2013-01-28 20:27:00,
2013-01-28 15:32:00,42.9,42.4,29.93,West,281,3.0,4.0,98,0.00,,,0.17,46.00,VWS V14.01,2013-01-28 20:32:00,
2013-01-28 15:37:00,42.7,42.2,29.93,WNW,283,2.0,5.0,98,0.00,,,0.17,47.00,VWS V14.01,2013-01-28 20:37:00,
2013-01-28 15:42:00,42.5,42.0,29.93,West,271,3.0,4.0,98,0.00,,,0.17,53.00,VWS V14.01,2013-01-28 20:42:00,
2013-01-28 15:47:00,42.4,41.9,29.93,West,271,3.0,3.0,98,0.00,,,0.17,42.00,VWS V14.01,2013-01-28 20:47:00,
2013-01-28 15:52:00,42.3,41.8,29.93,WNW,288,2.0,4.0,98,0.00,,,0.17,47.00,VWS V14.01,2013-01-28 20:52:00,
2013-01-28 15:57:00,42.2,41.7,29.94,WNW,288,3.0,5.0,98,0.00,,,0.17,33.00,VWS V14.01,2013-01-28 20:57:00,
2013-01-28 16:02:00,42.1,41.6,29.94,WNW,283,2.0,4.0,98,0.00,,,0.17,32.00,VWS V14.01,2013-01-28 21:02:00,
2013-01-28 16:07:00,42.0,41.5,29.94,West,261,5.0,5.0,98,0.00,,,0.17,30.00,VWS V14.01,2013-01-28 21:07:00,
2013-01-28 16:12:00,41.9,41.4,29.94,West,269,2.0,3.0,98,0.00,,,0.17,25.00,VWS V14.01,2013-01-28 21:12:00,
2013-01-28 16:17:00,41.8,41.3,29.95,West,265,2.0,3.0,98,0.00,,,0.17,26.00,VWS V14.01,2013-01-28 21:17:00,
2013-01-28 16:22:00,41.6,41.1,29.94,West,265,2.0,4.0,98,0.00,,,0.17,26.00,VWS V14.01,2013-01-28 21:22:00,
2013-01-28 16:27:00,41.5,41.0,29.95,West,267,3.0,3.0,98,0.00,,,0.17,28.00,VWS V14.01,2013-01-28 21:27:00,
2013-01-28 16:32:00,41.5,41.0,29.95,West,276,3.0,5.0,98,0.00,,,0.17,26.00,VWS V14.01,2013-01-28 21:32:00,
2013-01-28 16:37:00,41.4,40.9,29.95,West,276,2.0,4.0,98,0.00,,,0.17,19.00,VWS V14.01,2013-01-28 21:37:00,
2013-01-28 16:42:00,41.3,40.8,29.95,West,276,2.0,2.0,98,0.00,,,0.17,25.00,VWS V14.01,2013-01-28 21:42:00,
2013-01-28 16:47:00,41.3,40.8,29.96,West,276,2.0,2.0,98,0.00,,,0.17,25.00,VWS V14.01,2013-01-28 21:47:00,
2013-01-28 16:52:00,41.3,40.8,29.96,West,276,2.0,2.0,98,0.00,,,0.17,25.00,VWS V14.01,2013-01-28 21:52:00,
2013-01-28 16:57:00,41.3,40.8,29.97,West,276,2.0,2.0,98,0.00,,,0.17,25.00,VWS V14.01,2013-01-28 21:57:00,
2013-01-28 17:02:00,41.3,40.8,29.97,West,276,2.0,2.0,98,0.00,,,0.17,25.00,VWS V14.01,2013-01-28 22:02:00,
2013-01-28 17:07:00,40.8,40.3,29.97,West,276,3.0,4.0,98,0.00,,,0.17,9.00,VWS V14.01,2013-01-28 22:07:00,
2013-01-28 17:12:00,40.7,40.2,29.97,West,276,3.0,5.0,98,0.00,,,0.17,7.00,VWS V14.01,2013-01-28 22:12:00,
2013-01-28 17:17:00,40.5,40.0,29.96,West,276,2.0,4.0,98,0.00,,,0.17,7.00,VWS V14.01,2013-01-28 22:17:00,
2013-01-28 17:22:00,40.3,39.8,29.96,West,276,4.0,5.0,98,0.00,,,0.17,5.00,VWS V14.01,2013-01-28 22:22:00,
2013-01-28 17:27:00,40.2,39.7,29.96,West,276,1.0,3.0,98,0.00,,,0.17,5.00,VWS V14.01,2013-01-28 22:27:00,
2013-01-28 17:32:00,40.1,39.6,29.96,West,276,2.0,3.0,98,0.00,,,0.17,0.00,VWS V14.01,2013-01-28 22:32:00,
2013-01-28 17:37:00,40.0,39.5,29.96,West,276,2.0,2.0,98,0.00,,,0.17,0.00,VWS V14.01,2013-01-28 22:37:00,
2013-01-28 17:42:00,39.9,39.4,29.96,West,276,0.0,2.0,98,0.00,,,0.17,0.00,VWS V14.01,2013-01-28 22:42:00,
2013-01-28 17:47:00,39.8,39.3,29.96,West,276,0.0,1.0,98,0.00,,,0.17,0.00,VWS V14.01,2013-01-28 22:47:00,
2013-01-28 17:52:00,39.7,39.2,29.96,West,276,2.0,2.0,98,0.00,,,0.17,0.00,VWS V14.01,2013-01-28 22:52:00,
2013-01-28 17:57:00,39.7,39.2,29.96,West,276,2.0,3.0,98,0.00,,,0.17,0.00,VWS V14.01,2013-01-28 22:57:00,
2013-01-28 18:02:00,39.6,39.1,29.96,West,276,1.0,2.0,98,0.00,,,0.17,0.00,VWS V14.01,2013-01-28 23:02:00,
2013-01-28 18:07:00,39.5,39.0,29.96,West,276,0.0,0.0,98,0.00,,,0.17,0.00,VWS V14.01,2013-01-28 23:07:00,
2013-01-28 18:12:00,39.4,38.9,29.97,West,276,0.0,2.0,98,0.00,,,0.17,0.00,VWS V14.01,2013-01-28 23:12:00,
2013-01-28 18:17:00,39.2,38.7,29.97,West,276,2.0,3.0,98,0.00,,,0.17,0.00,VWS V14.01,2013-01-28 23:17:00,
2013-01-28 18:22:00,39.2,38.7,29.97,West,276,2.0,3.0,98,0.00,,,0.17,0.00,VWS V14.01,2013-01-28 23:22:00,
2013-01-28 18:27:00,39.2,38.7,29.97,West,276,1.0,2.0,98,0.00,,,0.17,0.00,VWS V14.01,2013-01-28 23:27:00,
2013-01-28 18:32:00,39.1,38.6,29.97,West,276,2.0,2.0,98,0.00,,,0.17,0.00,VWS V14.01,2013-01-28 23:32:00,
2013-01-28 18:37:00,39.1,38.6,29.98,West,276,1.0,2.0,98,0.00,,,0.17,0.00,VWS V14.01,2013-01-28 23:37:00,
2013-01-28 18:42:00,39.1,38.6,29.98,West,276,2.0,2.0,98,0.00,,,0.17,0.00,VWS V14.01,2013-01-28 23:42:00,
2013-01-28 18:47:00,39.1,38.6,29.98,West,276,0.0,1.0,98,0.00,,,0.17,0.00,VWS V14.01,2013-01-28 23:47:00,
2013-01-28 18:52:00,39.1,38.6,29.98,West,276,0.0,0.0,98,0.00,,,0.17,0.00,VWS V14.01,2013-01-28 23:52:00,
2013-01-28 18:57:00,39.1,38.6,29.98,West,276,0.0,0.0,98,0.00,,,0.17,0.00,VWS V14.01,2013-01-28 23:57:00,
2013-01-28 19:02:00,39.1,38.6,29.98,West,276,0.0,0.0,98,0.00,,,0.17,0.00,VWS V14.01,2013-01-29 00:02:00,
2013-01-28 19:07:00,39.0,38.5,29.98,West,276,0.0,0.0,98,0.00,,,0.17,0.00,VWS V14.01,2013-01-29 00:07:00,
2013-01-28 19:12:00,38.9,38.4,29.99,West,276,0.0,0.0,98,0.00,,,0.17,0.00,VWS V14.01,2013-01-29 00:12:00,
2013-01-28 19:17:00,38.8,38.3,29.98,West,276,0.0,0.0,98,0.00,,,0.17,0.00,VWS V14.01,2013-01-29 00:17:00,
2013-01-28 19:22:00,38.7,38.2,29.99,West,276,0.0,0.0,98,0.00,,,0.17,0.00,VWS V14.01,2013-01-29 00:22:00,
2013-01-28 19:27:00,38.7,38.2,29.99,West,276,0.0,0.0,98,0.00,,,0.17,0.00,VWS V14.01,2013-01-29 00:27:00,
2013-01-28 19:32:00,38.6,38.1,29.99,West,276,0.0,1.0,98,0.00,,,0.17,0.00,VWS V14.01,2013-01-29 00:32:00,
2013-01-28 19:37:00,38.5,38.0,29.99,West,276,0.0,0.0,98,0.00,,,0.17,0.00,VWS V14.01,2013-01-29 00:37:00,
2013-01-28 19:42:00,38.4,37.9,29.99,West,276,0.0,0.0,98,0.01,,,0.18,0.00,VWS V14.01,2013-01-29 00:42:00,
2013-01-28 19:47:00,38.4,37.9,29.99,West,276,0.0,0.0,98,0.01,,,0.18,0.00,VWS V14.01,2013-01-29 00:47:00,
2013-01-28 19:52:00,38.4,37.9,29.99,West,276,0.0,0.0,98,0.01,,,0.18,0.00,VWS V14.01,2013-01-29 00:52:00,
2013-01-28 19:57:00,38.3,37.8,29.99,West,276,0.0,0.0,98,0.01,,,0.18,0.00,VWS V14.01,2013-01-29 00:57:00,
2013-01-28 20:02:00,38.2,37.7,29.99,West,276,0.0,1.0,98,0.01,,,0.18,0.00,VWS V14.01,2013-01-29 01:02:00,
2013-01-28 20:07:00,38.0,37.5,29.99,West,276,1.0,1.0,98,0.01,,,0.18,0.00,VWS V14.01,2013-01-29 01:07:00,
2013-01-28 20:12:00,37.9,37.4,29.99,West,276,1.0,2.0,98,0.01,,,0.18,0.00,VWS V14.01,2013-01-29 01:12:00,
2013-01-28 20:17:00,37.8,37.3,29.99,West,276,0.0,0.0,98,0.01,,,0.18,0.00,VWS V14.01,2013-01-29 01:17:00,
2013-01-28 20:22:00,37.7,37.2,29.99,West,276,1.0,2.0,98,0.01,,,0.18,0.00,VWS V14.01,2013-01-29 01:22:00,
2013-01-28 20:27:00,37.7,37.2,29.99,West,276,0.0,0.0,98,0.01,,,0.18,0.00,VWS V14.01,2013-01-29 01:27:00,
2013-01-28 20:32:00,37.6,37.1,29.99,West,276,0.0,0.0,98,0.01,,,0.18,0.00,VWS V14.01,2013-01-29 01:32:00,
2013-01-28 20:37:00,37.6,37.1,29.99,West,276,0.0,0.0,98,0.01,,,0.18,0.00,VWS V14.01,2013-01-29 01:37:00,
2013-01-28 20:42:00,37.7,37.2,29.99,West,276,0.0,0.0,98,0.00,,,0.18,0.00,VWS V14.01,2013-01-29 01:42:00,